| time (UTC) | temp C | wind direction | speed KPH | gust KPH | rain 1hr cm | rain 24hr cm | rain mn cm | humidity % | barometer mb |
| 20260510070055 | 8 | 240 | 12.9 | 24.1 | 0.00 | 0.00 | 0.00 | 86 | 1017.0 |
| 20260510064551 | 8 | 252 | 12.9 | 20.9 | 0.00 | 0.00 | 0.00 | 86 | 1017.0 |
| 20260510063052 | 8 | 236 | 11.3 | 25.7 | 0.00 | 0.00 | 0.00 | 86 | 1016.9 |
| 20260510061555 | 8 | 248 | 14.5 | 25.7 | 0.00 | 0.00 | 0.00 | 87 | 1017.0 |
| 20260510060053 | 8 | 242 | 14.5 | 22.5 | 0.00 | 0.00 | 0.00 | 87 | 1017.0 |
| 20260510054549 | 8 | 238 | 9.7 | 19.3 | 0.00 | 0.00 | 0.00 | 87 | 1017.1 |
| 20260510053047 | 8 | 248 | 11.3 | 22.5 | 0.00 | 0.00 | 0.00 | 88 | 1017.3 |
| 20260510051548 | 8 | 225 | 9.7 | 17.7 | 0.00 | 0.00 | 0.00 | 89 | 1017.3 |
| 20260510050051 | 8 | 227 | 8.0 | 17.7 | 0.00 | 0.00 | 0.00 | 89 | 1017.4 |
| 20260510044555 | 7 | 257 | 8.0 | 14.5 | 0.00 | 0.00 | 0.00 | 89 | 1017.4 |
| 20260510043050 | 7 | 235 | 6.4 | 12.9 | 0.00 | 0.00 | 0.00 | 87 | 1017.6 |
| 20260510041547 | 8 | 234 | 8.0 | 14.5 | 0.00 | 0.00 | 0.00 | 86 | 1017.5 |
| 20260510040059 | 8 | 231 | 9.7 | 17.7 | 0.00 | 0.00 | 0.00 | 86 | 1017.3 |
| 20260510034549 | 8 | 246 | 8.0 | 16.1 | 0.00 | 0.00 | 0.00 | 85 | 1017.4 |
| 20260510033102 | 8 | 238 | 8.0 | 14.5 | 0.00 | 0.00 | 0.00 | 84 | 1017.5 |
| 20260510031552 | 8 | 240 | 6.4 | 25.7 | 0.00 | 0.00 | 0.00 | 82 | 1017.3 |
| 20260510030055 | 8 | 240 | 6.4 | 16.1 | 0.00 | 0.00 | 0.00 | 83 | 1017.3 |
| 20260510024550 | 8 | 237 | 4.8 | 12.9 | 0.00 | 0.00 | 0.00 | 82 | 1017.4 |
| 20260510023048 | 9 | 265 | 6.4 | 16.1 | 0.00 | 0.00 | 0.00 | 81 | 1017.3 |
| 20260510021546 | 8 | 224 | 4.8 | 17.7 | 0.00 | 0.00 | 0.00 | 81 | 1017.3 |
| 20260510020049 | 8 | 249 | 4.8 | 11.3 | 0.00 | 0.00 | 0.00 | 81 | 1016.9 |
| 20260510014549 | 8 | 240 | 3.2 | 12.9 | 0.00 | 0.00 | 0.00 | 81 | 1016.5 |
| 20260510013046 | 8 | 219 | 3.2 | 6.4 | 0.00 | 0.00 | 0.00 | 78 | 1016.3 |
| 20260510011549 | 9 | 234 | 3.2 | 8.0 | 0.00 | 0.00 | 0.00 | 77 | 1016.1 |
| 20260510010047 | 9 | 219 | 3.2 | 9.7 | 0.00 | 0.00 | 0.00 | 75 | 1016.0 |
| 20260510004544 | 10 | 215 | 3.2 | 8.0 | 0.00 | 0.00 | 0.00 | 74 | 1015.8 |
| 20260510003048 | 10 | 194 | 3.2 | 11.3 | 0.00 | 0.00 | 0.00 | 72 | 1015.7 |
| 20260510001550 | 10 | 229 | 4.8 | 12.9 | 0.00 | 0.00 | 0.00 | 71 | 1015.4 |
| 20260510000104 | 11 | 242 | 3.2 | 16.1 | 0.00 | 0.00 | 0.00 | 69 | 1015.2 |
| 20260509234555 | 11 | 255 | 6.4 | 14.5 | 0.00 | 0.00 | 0.00 | 67 | 1015.1 |
| 20260509233050 | 12 | 250 | 6.4 | 14.5 | 0.00 | 0.00 | 0.00 | 65 | 1015.1 |
| 20260509231549 | 12 | 225 | 4.8 | 16.1 | 0.00 | 0.00 | 0.00 | 65 | 1015.2 |
| 20260509230049 | 12 | 192 | 6.4 | 20.9 | 0.00 | 0.00 | 0.00 | 65 | 1015.3 |
| 20260509224550 | 12 | 270 | 4.8 | 14.5 | 0.00 | 0.00 | 0.00 | 65 | 1015.4 |
| 20260509223059 | 12 | 252 | 4.8 | 22.5 | 0.00 | 0.00 | 0.00 | 63 | 1015.3 |
| 20260509221550 | 13 | 241 | 8.0 | 20.9 | 0.00 | 0.00 | 0.00 | 61 | 1015.2 |
| 20260509220045 | 13 | 244 | 8.0 | 19.3 | 0.00 | 0.00 | 0.00 | 57 | 1015.1 |
| 20260509214548 | 14 | 232 | 8.0 | 20.9 | 0.00 | 0.00 | 0.00 | 54 | 1015.1 |
| 20260509213053 | 14 | 244 | 4.8 | 19.3 | 0.00 | 0.00 | 0.00 | 51 | 1015.0 |
| 20260509211548 | 14 | 238 | 8.0 | 14.5 | 0.00 | 0.00 | 0.00 | 50 | 1014.7 |
| 20260509210057 | 15 | 229 | 6.4 | 22.5 | 0.00 | 0.00 | 0.00 | 47 | 1014.5 |
| 20260509204554 | 16 | 235 | 8.0 | 20.9 | 0.00 | 0.00 | 0.00 | 48 | 1014.2 |
| 20260509203055 | 15 | 284 | 8.0 | 17.7 | 0.00 | 0.00 | 0.00 | 49 | 1014.1 |
| 20260509201549 | 15 | 250 | 12.9 | 27.4 | 0.00 | 0.00 | 0.00 | 52 | 1014.2 |
| 20260509200106 | 16 | 223 | 8.0 | 22.5 | 0.00 | 0.00 | 0.00 | 55 | 1014.2 |
| 20260509194547 | 15 | 225 | 8.0 | 17.7 | 0.00 | 0.00 | 0.00 | 55 | 1014.3 |
| 20260509193048 | 16 | 229 | 9.7 | 22.5 | 0.00 | 0.00 | 0.00 | 55 | 1014.1 |
| 20260509191547 | 17 | 242 | 9.7 | 19.3 | 0.00 | 0.00 | 0.00 | 55 | 1014.3 |
| 20260509190047 | 15 | 230 | 11.3 | 20.9 | 0.00 | 0.00 | 0.00 | 59 | 1014.4 |
| 20260509184558 | 15 | 250 | 9.7 | 25.7 | 0.00 | 0.00 | 0.00 | 60 | 1014.5 |
| 20260509183052 | 15 | 257 | 6.4 | 24.1 | 0.00 | 0.00 | 0.00 | 61 | 1014.5 |
| 20260509181614 | 15 | 213 | 8.0 | 16.1 | 0.00 | 0.00 | 0.00 | 63 | 1014.5 |
| 20260509180049 | 15 | 223 | 8.0 | 14.5 | 0.00 | 0.00 | 0.00 | 66 | 1014.5 |
| 20260509174558 | 14 | 227 | 8.0 | 19.3 | 0.00 | 0.00 | 0.00 | 66 | 1014.7 |
| 20260509173059 | 13 | 222 | 8.0 | 12.9 | 0.00 | 0.00 | 0.00 | 64 | 1015.0 |
| 20260509171545 | 12 | 224 | 4.8 | 11.3 | 0.00 | 0.00 | 0.00 | 73 | 1015.0 |
| 20260509170049 | 13 | 0 | 6.4 | 16.1 | 0.00 | 0.00 | 0.00 | 67 | 1015.2 |
| 20260509164549 | 12 | 218 | 6.4 | 17.7 | 0.00 | 0.00 | 0.00 | 68 | 1015.2 |
| 20260509163052 | 12 | 228 | 4.8 | 12.9 | 0.00 | 0.00 | 0.00 | 69 | 1015.0 |
| 20260509161547 | 12 | 216 | 4.8 | 14.5 | 0.00 | 0.00 | 0.00 | 68 | 1014.9 |
| 20260509160056 | 12 | 252 | 6.4 | 16.1 | 0.00 | 0.00 | 0.00 | 69 | 1014.9 |
| 20260509154549 | 13 | 219 | 8.0 | 14.5 | 0.00 | 0.00 | 0.00 | 65 | 1014.7 |
| 20260509153053 | 13 | 236 | 6.4 | 17.7 | 0.00 | 0.00 | 0.00 | 64 | 1014.7 |
| 20260509151555 | 13 | 227 | 8.0 | 16.1 | 0.00 | 0.00 | 0.00 | 64 | 1014.7 |
| 20260509150050 | 13 | 254 | 6.4 | 14.5 | 0.00 | 0.00 | 0.00 | 64 | 1014.6 |
| 20260509144604 | 13 | 240 | 9.7 | 16.1 | 0.00 | 0.00 | 0.00 | 62 | 1014.4 |
| 20260509143105 | 13 | 233 | 8.0 | 16.1 | 0.00 | 0.00 | 0.00 | 61 | 1014.5 |
| 20260509141547 | 12 | 227 | 4.8 | 12.9 | 0.00 | 0.00 | 0.00 | 66 | 1014.2 |
| 20260509140054 | 11 | 212 | 4.8 | 14.5 | 0.00 | 0.00 | 0.00 | 68 | 1014.4 |
| 20260509134605 | 11 | 243 | 6.4 | 12.9 | 0.00 | 0.00 | 0.00 | 71 | 1014.7 |
| 20260509133050 | 10 | 224 | 8.0 | 16.1 | 0.00 | 0.00 | 0.00 | 73 | 1015.0 |
| 20260509131551 | 9 | 242 | 6.4 | 12.9 | 0.00 | 0.00 | 0.00 | 77 | 1015.1 |
| 20260509130058 | 8 | 265 | 6.4 | 12.9 | 0.00 | 0.00 | 0.00 | 80 | 1015.0 |
| 20260509124547 | 8 | 261 | 6.4 | 14.5 | 0.00 | 0.00 | 0.00 | 79 | 1015.2 |
| 20260509123111 | 8 | 243 | 4.8 | 9.7 | 0.00 | 0.00 | 0.00 | 80 | 1015.3 |
| 20260509121607 | 7 | 224 | 4.8 | 8.0 | 0.00 | 0.00 | 0.00 | 81 | 1014.9 |
| 20260509120112 | 7 | 220 | 3.2 | 6.4 | 0.00 | 0.00 | 0.00 | 83 | 1014.9 |
| 20260509114550 | 6 | 235 | 3.2 | 6.4 | 0.00 | 0.00 | 0.00 | 83 | 1015.0 |
| 20260509113050 | 6 | 234 | 4.8 | 8.0 | 0.00 | 0.00 | 0.00 | 84 | 1015.0 |
| 20260509111601 | 6 | 236 | 3.2 | 6.4 | 0.00 | 0.00 | 0.00 | 84 | 1015.2 |
| 20260509110049 | 6 | 236 | 3.2 | 6.4 | 0.00 | 0.00 | 0.00 | 84 | 1015.2 |
| 20260509104551 | 6 | 236 | 3.2 | 6.4 | 0.00 | 0.00 | 0.00 | 84 | 1015.1 |
| 20260509103101 | 6 | 232 | 3.2 | 8.0 | 0.00 | 0.00 | 0.00 | 84 | 1015.1 |
| 20260509101619 | 6 | 231 | 3.2 | 8.0 | 0.00 | 0.00 | 0.00 | 84 | 1014.9 |
| 20260509100057 | 6 | 234 | 4.8 | 8.0 | 0.00 | 0.00 | 0.00 | 84 | 1014.7 |
| 20260509094549 | 5 | 232 | 4.8 | 11.3 | 0.00 | 0.00 | 0.00 | 84 | 1014.8 |
| 20260509093047 | 6 | 239 | 4.8 | 9.7 | 0.00 | 0.00 | 0.00 | 83 | 1015.0 |
| 20260509091549 | 6 | 234 | 6.4 | 12.9 | 0.00 | 0.00 | 0.00 | 82 | 1015.1 |
| 20260509090050 | 6 | 237 | 6.4 | 11.3 | 0.00 | 0.00 | 0.00 | 82 | 1015.4 |
| 20260509084550 | 6 | 226 | 6.4 | 11.3 | 0.00 | 0.00 | 0.00 | 81 | 1015.4 |
| 20260509083045 | 6 | 221 | 4.8 | 11.3 | 0.00 | 0.00 | 0.00 | 80 | 1015.4 |
| 20260509081548 | 6 | 226 | 6.4 | 12.9 | 0.00 | 0.00 | 0.00 | 79 | 1015.6 |
| 20260509080051 | 6 | 242 | 6.4 | 12.9 | 0.00 | 0.00 | 0.00 | 78 | 1015.5 |
| 20260509074550 | 6 | 232 | 8.0 | 16.1 | 0.00 | 0.00 | 0.00 | 77 | 1015.5 |
| 20260509073105 | 6 | 227 | 6.4 | 12.9 | 0.00 | 0.00 | 0.00 | 76 | 1015.7 |
| 20260509071556 | 7 | 258 | 6.4 | 16.1 | 0.00 | 0.00 | 0.00 | 75 | 1015.7 |